{"data":{"norad_id":66438,"epoch":"2026-05-25T05:05:30.128064Z","epoch_age_seconds":57007,"freshness":"FRESH","line1":"1 66438U 25259S   26145.21215426  .00006650  00000+0  25090-3 0  9996","line2":"2 66438  43.0006 202.2505 0001321 266.5401  93.5299 15.27585937 31080","mean_motion":15.27585937,"eccentricity":0.0001321,"inclination_deg":43.0006,"raan_deg":202.2505,"arg_perigee_deg":266.5401,"mean_anomaly_deg":93.5299,"bstar":0.0002509,"rev_number":3108,"period_min":94.266382343634,"perigee_km":482.12495824852,"apogee_km":483.93767891829,"semimajor_km":6861.1683185834,"source":"CELESTRAK","updated_at":"2026-05-25T13:38:21.210501Z"}}